Estación de Colina

Ultimos registro cada 15 minutos 87
Estación Fecha / Hora Temperatura Humedad Lluvia Velocidad Dirección Radiación Presion
87 Colina 02-05-2026 21:30 12 70 0 0 180 0 1016,1
86 Colina 02-05-2026 21:15 12,6 69 0 0 180 0 1016,2
85 Colina 02-05-2026 21:00 13,3 68 0 0 180 0 1016,4
84 Colina 02-05-2026 20:45 13,7 68 0 0 180 0 1016,4
83 Colina 02-05-2026 20:30 13,9 68 0 0,4 180 0 1016,5
82 Colina 02-05-2026 20:15 13,2 67 0 0 180 0 1016,4
81 Colina 02-05-2026 20:00 13,2 68 0 0 180 0 1016,3
80 Colina 02-05-2026 19:45 13,4 63 0 0 180 0 1016,4
79 Colina 02-05-2026 19:30 13,9 61 0 0 180 0 1015,9
78 Colina 02-05-2026 19:15 14,8 59 0 0 180 0 1015,5
77 Colina 02-05-2026 19:00 15,9 58 0 0 180 0 1015,2
76 Colina 02-05-2026 18:45 16,4 56 0 0 180 0 1015
75 Colina 02-05-2026 18:30 17,9 54 0 0 180 0 1015
74 Colina 02-05-2026 18:15 20 50 0 0 180 0 1014,7
73 Colina 02-05-2026 18:00 22,6 45 0 0 232 5 1014,6
72 Colina 02-05-2026 17:45 24,8 42 0 0 180 14 1014,5
71 Colina 02-05-2026 17:30 26,4 37 0 0 180 33 1014,5
70 Colina 02-05-2026 17:15 27,2 32 0 0,9 180 81 1014,3
69 Colina 02-05-2026 17:00 27,4 31 0 0 235 33 1014,2
68 Colina 02-05-2026 16:45 27,9 29 0 0,9 256 35 1014
67 Colina 02-05-2026 16:30 28,1 29 0 0,4 233 37 1014
66 Colina 02-05-2026 16:15 28 29 0 0,9 264 37 1014
65 Colina 02-05-2026 16:00 28,2 31 0 0,4 256 47 1014,1
64 Colina 02-05-2026 15:45 28,4 32 0 0,4 254 236 1014,1
63 Colina 02-05-2026 15:30 28,1 33 0 0,9 235 504 1014,2
62 Colina 02-05-2026 15:15 28 32 0 0,4 153 561 1014,2
61 Colina 02-05-2026 15:00 28 34 0 0,9 108 612 1014,2
60 Colina 02-05-2026 14:45 27,8 36 0 0,9 229 661 1014,2
59 Colina 02-05-2026 14:30 27,4 34 0 0 229 708 1014,2
58 Colina 02-05-2026 14:15 26,7 37 0 0 229 751 1014,3
57 Colina 02-05-2026 14:00 26,1 39 0 0,4 228 779 1014,5
56 Colina 02-05-2026 13:45 25,6 41 0 0,9 228 786 1014,6
55 Colina 02-05-2026 13:30 24,7 43 0 0,4 204 830 1014,7
54 Colina 02-05-2026 13:15 24,3 45 0 0,9 223 851 1014,8
53 Colina 02-05-2026 13:00 23,3 48 0 0,9 244 860 1015
52 Colina 02-05-2026 12:45 23,1 50 0 0,9 247 860 1015,2
51 Colina 02-05-2026 12:30 22,4 53 0 0,4 180 867 1015,4
50 Colina 02-05-2026 12:15 21,7 55 0 0 180 856 1015,6
49 Colina 02-05-2026 12:00 21,2 59 0 0,9 180 851 1015,9
48 Colina 02-05-2026 11:45 20,8 61 0 0,4 180 830 1016,2
47 Colina 02-05-2026 11:30 20,2 63 0 0 180 816 1016,5
46 Colina 02-05-2026 11:15 19,4 64 0 0 180 789 1016,7
45 Colina 02-05-2026 11:00 18,8 63 0 0 180 752 1016,9
44 Colina 02-05-2026 10:45 18,1 66 0 0,4 180 724 1017,1
43 Colina 02-05-2026 10:30 17,1 71 0 0 180 682 1017,4
42 Colina 02-05-2026 10:15 15,2 78 0 0 180 640 1017,6
41 Colina 02-05-2026 10:00 13,6 84 0 0 180 585 1017,8
40 Colina 02-05-2026 09:45 12,7 88 0 0 180 531 1018,1
39 Colina 02-05-2026 09:30 11,6 92 0 0 180 443 1018,1
38 Colina 02-05-2026 09:15 10,7 94 0 0 249 362 1018,3
37 Colina 02-05-2026 09:00 9,8 94 0 0 249 308 1018,3
36 Colina 02-05-2026 08:45 9 94 0 0 180 246 1018,2
35 Colina 02-05-2026 08:30 6,9 93 0 0 180 120 1017,8
34 Colina 02-05-2026 08:15 5 93 0 0 180 116 1017,7
33 Colina 02-05-2026 08:00 3,6 92 0 0 180 63 1017,5
32 Colina 02-05-2026 07:45 3,2 91 0 0 180 35 1017,2
31 Colina 02-05-2026 07:30 3,1 91 0 0 180 9 1017
30 Colina 02-05-2026 07:15 2,9 91 0 0 180 5 1017,1
29 Colina 02-05-2026 07:00 2,7 90 0 0 250 0 1017
28 Colina 02-05-2026 06:45 3,2 90 0 0 250 0 1017
27 Colina 02-05-2026 06:30 3,7 90 0 0 250 0 1016,8
26 Colina 02-05-2026 06:15 4 91 0 0 250 0 1016,9
25 Colina 02-05-2026 06:00 4 91 0 0 250 0 1017
24 Colina 02-05-2026 05:45 3,9 90 0 0 250 0 1017,3
23 Colina 02-05-2026 05:30 4,3 91 0 0 251 0 1017,6
22 Colina 02-05-2026 05:15 4,3 91 0 0 251 0 1017,7
21 Colina 02-05-2026 05:00 4,3 90 0 0 254 0 1017,8
20 Colina 02-05-2026 04:45 4,4 90 0 0 180 0 1017,9
19 Colina 02-05-2026 04:30 4,4 90 0 0 180 0 1018,2
18 Colina 02-05-2026 04:15 4,6 90 0 0 180 0 1018,3
17 Colina 02-05-2026 04:00 4,7 90 0 0 180 0 1018,4
16 Colina 02-05-2026 03:45 5,1 91 0 0 180 0 1018,5
15 Colina 02-05-2026 03:30 5 90 0 0 180 0 1018,6
14 Colina 02-05-2026 03:15 5 91 0 0 180 0 1018,7
13 Colina 02-05-2026 03:00 4,9 90 0 0 180 0 1018,7
12 Colina 02-05-2026 02:45 4,7 90 0 0 180 0 1018,9
11 Colina 02-05-2026 02:30 4,3 89 0 0 180 0 1018,9
10 Colina 02-05-2026 02:15 4,4 89 0 0 180 0 1019,2
9 Colina 02-05-2026 02:00 4,8 89 0 0 180 0 1019,2
8 Colina 02-05-2026 01:45 5 89 0 0 180 0 1019,1
7 Colina 02-05-2026 01:30 5,2 88 0 0 180 0 1019,3
6 Colina 02-05-2026 01:15 5,8 89 0 0 180 0 1019,3
5 Colina 02-05-2026 01:00 6,2 89 0 0 180 0 1019,5
4 Colina 02-05-2026 00:45 6,3 89 0 0 180 0 1019,7
3 Colina 02-05-2026 00:30 6,4 89 0 0 180 0 1020
2 Colina 02-05-2026 00:15 6,3 89 0 0 180 0 1020,2
1 Colina 02-05-2026 00:00 6,3 87 0 0 180 0 1020,4